[[{"header":{"parameterUnit":"m.s-1","parameterCategory":1,"la1":30.2991,"la2":30.254,"lo1":-89.0895,"lo2":-89.0444,"dy":0.0017,"dx":0.0017,"nx":28,"ny":28,"refTime":"2024-03-17T09:00:00:Z","depth":0,"parameterNumber":2,"parameterNumberName":"U-component_of_WINDS"},"data":[0,0,0,0,0,0,0,0,0,0,0,0,0,0,0,0,0,0,0,0,0,0,0,0,0,0,0,0,0,0,0,0,0,0,0,0,0,0,0,0,0,0,0,0,0,0,0,0,0,0,0,0,0,0,0,0,0,0,0.0021,0.002,0,-0.0053,-0.0054,-0.0054,-0.007,-0.007,-0.0069,-0.0069,-0.0147,-0.0149,-0.0152,0,0,0,0,0,0,0,0,0,0,0,0,0,0.0144,0.0142,0.0021,0.002,0.0019,-0.0053,-0.0054,-0.0055,-0.007,-0.007,-0.0069,-0.0068,-0.0146,-0.0149,-0.0152,0,0,0,0,0,0,0,0,0,0,0,0,0,0.0083,0.0141,0.0021,0.0003,0.0,-0.0052,-0.0054,-0.0055,-0.007,-0.007,-0.0069,-0.0068,-0.0145,-0.0149,-0.0153,-0.0193,0,0,-0.0164,-0.0166,0,0,0,0,0,0,0,0,0.0086,0.0078,0.0006,0.0004,0.0001,-0.0051,-0.0039,-0.0101,-0.0071,-0.0044,-0.0069,-0.0068,-0.0116,-0.0122,-0.0138,-0.0197,-0.02,-0.0165,-0.0167,-0.0169,-0.017,0,0,0,0,0,0,0,0.009,0.0081,-0.0008,0.0005,0.0002,-0.0003,-0.0011,-0.0051,-0.0084,-0.0046,-0.0047,-0.0056,-0.0117,-0.0134,-0.014,-0.0201,-0.0165,-0.0168,-0.0171,-0.0172,-0.0298,-0.0299,0,0,0,0,0,0,0.0098,0.0085,-0.0006,-0.0011,0.0047,-0.0006,-0.0015,-0.0035,-0.0083,-0.009,-0.0056,-0.0056,-0.0128,-0.0135,-0.0143,-0.0194,-0.0169,-0.0172,-0.0175,-0.0297,-0.0298,-0.0299,0,0,0,0,0,0,0.0101,0.009,-0.0003,0.0037,0.0024,-0.0009,-0.0032,-0.0037,-0.0054,-0.0091,-0.0097,-0.0067,-0.0127,-0.0137,-0.018,-0.0197,-0.0174,-0.0178,-0.0296,-0.0297,-0.0299,-0.0297,0,0,0,0,0,0,0.0105,0.0092,0.0077,0.0037,0.0022,-0.0039,-0.0033,-0.0039,-0.006,-0.0061,-0.0103,-0.0109,-0.0128,-0.0174,-0.0184,-0.0202,-0.0181,-0.0294,-0.0296,-0.0298,-0.0295,-0.0298,-0.03,0,0,0,0,0,0.0109,0.008,0.0076,0.0065,0.0003,-0.004,-0.0048,-0.0068,-0.0062,-0.0078,-0.0101,-0.0108,-0.0193,-0.0179,-0.019,-0.0209,-0.0293,-0.0296,-0.0298,-0.0294,-0.0297,-0.03,0,0,0,0,0,0,0.0117,0.0074,0.0069,0.0026,-0.0003,-0.0042,-0.0063,-0.007,-0.0102,-0.0101,-0.0126,-0.0135,-0.0177,-0.0197,-0.018,-0.0251,-0.0243,-0.0248,-0.0237,-0.024,-0.0242,-0.0237,-0.0184,0,0,0,0,0,0.0115,0.0084,0.0048,0.0013,-0.0001,-0.0029,-0.0049,-0.0061,-0.0093,-0.0106,-0.0132,-0.0163,-0.0198,-0.0219,-0.0253,-0.0298,-0.0308,-0.0316,-0.0319,-0.032,-0.0325,-0.0351,-0.0356,-0.0307,-0.0307,-0.0306,0,0,0.0107,0.008,0.0062,0.0014,-0.001,-0.0042,-0.004,-0.0073,-0.0098,-0.0111,-0.0154,-0.0174,-0.0211,-0.0255,-0.0276,-0.0273,-0.034,-0.0323,-0.0324,-0.0328,-0.0354,-0.0359,-0.0363,-0.0308,-0.0308,-0.0308,0,0,0.0078,0.0055,0.0023,-0.0001,-0.0037,-0.0055,-0.0063,-0.0101,-0.0115,-0.0158,-0.0169,-0.0198,-0.0256,-0.0282,-0.0302,-0.0341,-0.0349,-0.0351,-0.0364,-0.039,-0.0394,-0.0397,-0.0413,-0.0418,-0.0355,-0.0355,-0.0355,0,0.0074,0.0026,0.0008,-0.0026,-0.0047,-0.0059,-0.0093,-0.0115,-0.0161,-0.0176,-0.0171,-0.0244,-0.027,-0.0321,-0.033,-0.0346,-0.0357,-0.0347,-0.0391,-0.0395,-0.0399,-0.0414,-0.0419,-0.0355,-0.0355,-0.0355,-0.0355,0,0.0022,-0.0011,-0.0033,-0.0075,-0.0099,-0.0132,-0.0157,-0.0179,-0.0189,-0.0209,-0.0253,-0.0283,-0.0323,-0.0336,-0.0347,-0.0389,-0.0386,-0.0386,-0.0379,-0.0403,-0.0418,-0.0424,-0.0355,-0.0355,-0.0355,-0.0355,0,0,-0.0006,-0.0058,-0.0066,-0.0086,-0.0126,-0.0152,-0.0186,-0.0224,-0.0243,-0.0274,-0.0304,-0.0352,-0.0353,-0.0376,-0.039,-0.0412,-0.0443,-0.0409,-0.0411,-0.0416,-0.0493,-0.0494,-0.05,-0.0447,-0.0448,-0.0449,-0.0491,0,-0.0041,-0.0101,-0.0119,-0.017,-0.0202,-0.0214,-0.0243,-0.0272,-0.0291,-0.0321,-0.0342,-0.0376,-0.0373,-0.0388,-0.041,-0.0434,-0.0459,-0.0431,-0.0477,-0.0478,-0.0469,-0.0508,-0.0509,-0.0547,-0.0496,-0.0497,-0.0498,0,-0.0091,-0.0122,-0.0176,-0.0213,-0.0227,-0.0253,-0.029,-0.0318,-0.0351,-0.0363,-0.0389,-0.0401,-0.0438,-0.0427,-0.0479,-0.046,-0.048,-0.0494,-0.0496,-0.0503,-0.0491,-0.0517,-0.0559,-0.0565,-0.0507,-0.0506,-0.0505,0,-0.0107,-0.0162,-0.0202,-0.0219,-0.0262,-0.0281,-0.03,-0.0332,-0.0354,-0.0386,-0.0401,-0.0438,-0.0458,-0.0486,-0.0508,-0.0498,-0.0559,-0.055,-0.0572,-0.0571,-0.0586,-0.0585,-0.0633,-0.0595,-0.0595,-0.0595,-0.0595,0,-0.0146,-0.0179,-0.021,-0.0235,-0.0273,-0.0293,-0.033,-0.035,-0.0378,-0.0408,-0.042,-0.0448,-0.0474,-0.0506,-0.0523,-0.0564,-0.0573,-0.0585,-0.0589,-0.0585,-0.0584,-0.06,-0.0598,-0.0596,-0.0596,-0.0596,-0.0596,0,-0.0172,-0.0194,-0.0238,-0.0276,-0.0286,-0.0312,-0.0345,-0.037,-0.0388,-0.0426,-0.0436,-0.0466,-0.0504,-0.0527,-0.0576,-0.0587,-0.0633,-0.0636,-0.0622,-0.0625,-0.0646,-0.0644,-0.0708,-0.0718,-0.0671,-0.0671,-0.0672,0,-0.0196,-0.0222,-0.0262,-0.0282,-0.0301,-0.0334,-0.0356,-0.0377,-0.04,-0.044,-0.046,-0.0498,-0.053,-0.059,-0.0617,-0.0654,-0.0659,-0.0679,-0.0665,-0.066,-0.0662,-0.0661,-0.0664,-0.0682,-0.0682,-0.0682,-0.0683,0,-0.0237,-0.0247,-0.0278,-0.0314,-0.034,-0.0369,-0.0398,-0.0414,-0.044,-0.0465,-0.0504,-0.0528,-0.0577,-0.0616,-0.0655,-0.0676,-0.0685,-0.0686,-0.0694,-0.069,-0.0682,-0.0689,-0.063,-0.0685,-0.0685,-0.0685,-0.0685,-0.0685,-0.0264,-0.0288,-0.032,-0.0355,-0.0379,-0.0406,-0.0431,-0.0453,-0.0485,-0.0526,-0.0536,-0.0577,-0.061,-0.0663,-0.0685,-0.0718,-0.0715,-0.0725,-0.0729,-0.0731,-0.0732,-0.0675,-0.0725,-0.0725,-0.0725,-0.0725,-0.0725,0,-0.0308,-0.0329,-0.036,-0.04,-0.0428,-0.0432,-0.0464,-0.0487,-0.0523,-0.0552,-0.0583,-0.0628,-0.0665,-0.0694,-0.0733,-0.0753,-0.0758,-0.0763,-0.0763,-0.0768,-0.0732,-0.0722,-0.0759,-0.0759,-0.0759,-0.0759,-0.0759,-0.0759,-0.0334,-0.0375,-0.0388,-0.0441,-0.0462,-0.0501,-0.052,-0.0545,-0.0569,-0.0618,-0.0648,-0.0667,-0.0697,-0.0738,-0.0772,-0.078,-0.0795,-0.0799,-0.0808,-0.0774,-0.077,-0.0767,-0.0758,-0.0802,-0.0802,-0.0842,-0.0842,-0.0842]},{"header":{"parameterUnit":"m.s-1","parameterCategory":1,"la1":30.2991,"la2":30.254,"lo1":-89.0895,"lo2":-89.0444,"dy":0.0017,"dx":0.0017,"nx":28,"ny":28,"refTime":"2024-03-17T09:00:00:Z","depth":0,"parameterNumber":3,"parameterNumberName":"V-component_of_WINDS"},"data":[0,0,0,0,0,0,0,0,0,0,0,0,0,0,0,0,0,0,0,0,0,0,0,0,0,0,0,0,0,0,0,0,0,0,0,0,0,0,0,0,0,0,0,0,0,0,0,0,0,0,0,0,0,0,0,0,0,0,-5.6507,-5.6508,0,-5.6596,-5.6597,-5.6598,-5.6564,-5.6562,-5.656,-5.6558,-5.6643,-5.6647,-5.6652,0,0,0,0,0,0,0,0,0,0,0,0,0,-5.6302,-5.6305,-5.6506,-5.6508,-5.6509,-5.6596,-5.6597,-5.6598,-5.6564,-5.6562,-5.6559,-5.6557,-5.6642,-5.6647,-5.6652,0,0,0,0,0,0,0,0,0,0,0,0,0,-5.6391,-5.6307,-5.6506,-5.6502,-5.6503,-5.6596,-5.6597,-5.6599,-5.6565,-5.6562,-5.6558,-5.6556,-5.664,-5.6646,-5.6653,-5.6753,0,0,-5.6672,-5.6675,0,0,0,0,0,0,0,0,-5.6386,-5.6398,-5.6502,-5.6503,-5.6504,-5.6566,-5.6556,-5.665,-5.6565,-5.6541,-5.6558,-5.6554,-5.662,-5.6627,-5.6651,-5.6757,-5.6761,-5.6672,-5.6676,-5.6679,-5.6681,0,0,0,0,0,0,0,-5.638,-5.6394,-5.6542,-5.6503,-5.6504,-5.6495,-5.6504,-5.6574,-5.6596,-5.6543,-5.6541,-5.6552,-5.6619,-5.6645,-5.6652,-5.6762,-5.6672,-5.6678,-5.6682,-5.6684,-5.6957,-5.6961,0,0,0,0,0,0,-5.6374,-5.6389,-5.6539,-5.6544,-5.6436,-5.6501,-5.6511,-5.6549,-5.6595,-5.66,-5.6555,-5.655,-5.6636,-5.6645,-5.6655,-5.6778,-5.6679,-5.6685,-5.6688,-5.6954,-5.6958,-5.6962,0,0,0,0,0,0,-5.6369,-5.6387,-5.6535,-5.6466,-5.6485,-5.6508,-5.655,-5.6552,-5.6578,-5.6604,-5.6608,-5.6577,-5.6634,-5.6647,-5.673,-5.678,-5.6688,-5.6693,-5.695,-5.6955,-5.696,-5.7022,0,0,0,0,0,0,-5.6364,-5.6386,-5.6425,-5.6468,-5.6488,-5.661,-5.6553,-5.6556,-5.6589,-5.6584,-5.6626,-5.663,-5.6632,-5.6721,-5.6736,-5.6787,-5.6698,-5.6945,-5.6952,-5.6958,-5.7016,-5.7029,-5.704,0,0,0,0,0,-5.6357,-5.6437,-5.6427,-5.6446,-5.6538,-5.6613,-5.6624,-5.6627,-5.6593,-5.6633,-5.665,-5.6629,-5.6772,-5.673,-5.6747,-5.68,-5.6942,-5.695,-5.6958,-5.701,-5.7026,-5.704,0,0,0,0,0,0,-5.6397,-5.6443,-5.6432,-5.6529,-5.6568,-5.6607,-5.6656,-5.6644,-5.6691,-5.6684,-5.6683,-5.6693,-5.678,-5.6798,-5.675,-5.6901,-5.6852,-5.6864,-5.6886,-5.6902,-5.6914,-5.6907,-5.6703,0,0,0,0,0,-5.6418,-5.6477,-5.6512,-5.6594,-5.6615,-5.6633,-5.6665,-5.6664,-5.6703,-5.6718,-5.6742,-5.6779,-5.6833,-5.6868,-5.6919,-5.7018,-5.7027,-5.7064,-5.7076,-5.7086,-5.7096,-5.7152,-5.7169,-5.6988,-5.6987,-5.6987,0,0,-5.646,-5.6492,-5.6529,-5.6604,-5.6633,-5.6693,-5.6646,-5.671,-5.6755,-5.6727,-5.6809,-5.6828,-5.6869,-5.6962,-5.7004,-5.698,-5.7148,-5.7096,-5.7104,-5.7108,-5.7162,-5.7179,-5.7194,-5.6993,-5.6992,-5.6991,0,0,-5.6569,-5.6599,-5.6672,-5.6704,-5.6751,-5.6762,-5.678,-5.6822,-5.6834,-5.6917,-5.6898,-5.695,-5.7042,-5.7073,-5.7101,-5.7225,-5.7207,-5.7241,-5.7305,-5.7359,-5.7374,-5.7386,-5.7432,-5.7448,-5.7251,-5.7251,-5.7251,0,-5.6615,-5.6706,-5.671,-5.6778,-5.6812,-5.6793,-5.6867,-5.6897,-5.6957,-5.698,-5.6953,-5.707,-5.7096,-5.7197,-5.7228,-5.7251,-5.7271,-5.7236,-5.7372,-5.7384,-5.7396,-5.744,-5.7457,-5.7255,-5.7254,-5.7254,-5.7254,0,-5.6762,-5.6825,-5.6878,-5.6941,-5.698,-5.7051,-5.7065,-5.7104,-5.7101,-5.7115,-5.72,-5.7231,-5.7289,-5.7313,-5.7308,-5.7414,-5.7398,-5.7371,-5.7322,-5.7418,-5.7458,-5.7475,-5.7261,-5.7259,-5.7258,-5.7257,0,0,-5.6896,-5.6963,-5.6982,-5.7012,-5.7063,-5.7112,-5.7182,-5.7241,-5.7276,-5.7318,-5.7377,-5.7457,-5.7434,-5.7465,-5.7464,-5.7512,-5.7611,-5.748,-5.7481,-5.7504,-5.773,-5.7751,-5.777,-5.7599,-5.7602,-5.7605,-5.7727,0,-5.701,-5.7135,-5.7142,-5.7255,-5.7315,-5.7299,-5.736,-5.7398,-5.7414,-5.7466,-5.7482,-5.754,-5.7504,-5.7523,-5.757,-5.7589,-5.7656,-5.758,-5.7653,-5.7656,-5.7645,-5.7791,-5.7812,-5.7927,-5.7743,-5.7746,-5.7748,0,-5.7159,-5.721,-5.733,-5.7377,-5.7402,-5.7457,-5.7513,-5.7563,-5.7606,-5.7614,-5.7652,-5.7644,-5.7715,-5.7664,-5.7762,-5.771,-5.774,-5.7754,-5.7758,-5.7766,-5.7708,-5.7803,-5.7963,-5.7981,-5.7773,-5.7771,-5.7769,0,-5.7247,-5.7346,-5.7431,-5.7456,-5.7512,-5.7551,-5.7576,-5.7616,-5.7652,-5.7701,-5.7724,-5.7779,-5.781,-5.7852,-5.786,-5.7822,-5.7959,-5.7907,-5.7967,-5.7967,-5.7997,-5.7995,-5.8165,-5.8015,-5.8015,-5.8015,-5.8014,0,-5.7374,-5.7448,-5.7472,-5.7525,-5.7608,-5.7615,-5.7697,-5.7718,-5.7755,-5.781,-5.7799,-5.7851,-5.7858,-5.7912,-5.7918,-5.7999,-5.8012,-5.802,-5.8021,-5.8022,-5.8022,-5.8042,-5.8035,-5.8019,-5.8018,-5.8017,-5.8016,0,-5.7487,-5.7506,-5.7598,-5.7645,-5.7658,-5.7718,-5.7756,-5.7807,-5.7822,-5.7893,-5.791,-5.7934,-5.7997,-5.801,-5.8083,-5.8087,-5.8184,-5.8176,-5.8171,-5.817,-5.823,-5.8225,-5.842,-5.8446,-5.8278,-5.828,-5.8281,0,-5.7567,-5.7624,-5.7678,-5.7717,-5.7744,-5.7805,-5.7843,-5.7853,-5.7892,-5.7947,-5.7991,-5.8054,-5.8104,-5.8205,-5.8228,-5.8285,-5.8279,-5.8343,-5.8287,-5.8287,-5.8281,-5.8279,-5.8285,-5.8354,-5.8356,-5.8357,-5.8359,0,-5.7707,-5.7715,-5.7772,-5.7833,-5.788,-5.7927,-5.7972,-5.8004,-5.8019,-5.8064,-5.8131,-5.817,-5.8248,-5.831,-5.8367,-5.839,-5.8378,-5.8377,-5.8394,-5.8395,-5.839,-5.8395,-5.8201,-5.8372,-5.837,-5.8369,-5.8369,-5.8368,-5.7807,-5.7859,-5.7906,-5.797,-5.8006,-5.805,-5.81,-5.8124,-5.818,-5.8246,-5.8247,-5.832,-5.8362,-5.8438,-5.8466,-5.8522,-5.8501,-5.8525,-5.8532,-5.8538,-5.8545,-5.8381,-5.8532,-5.8531,-5.8531,-5.8531,-5.8531,0,-5.7948,-5.7979,-5.8038,-5.8104,-5.8155,-5.8141,-5.8191,-5.8234,-5.8299,-5.8341,-5.8393,-5.847,-5.8531,-5.856,-5.862,-5.8659,-5.8655,-5.8675,-5.8672,-5.8678,-5.8559,-5.8539,-5.8677,-5.8677,-5.8677,-5.8677,-5.8677,-5.8677,-5.8028,-5.8116,-5.8129,-5.8235,-5.8264,-5.8337,-5.8367,-5.8407,-5.8442,-5.8529,-5.8581,-5.8601,-5.8638,-5.8701,-5.8756,-5.8763,-5.8786,-5.8809,-5.8813,-5.8701,-5.8686,-5.8672,-5.8653,-5.8814,-5.8814,-5.8928,-5.8929,-5.893]}]]